Regional Weather Roundup
Issued by NWS

Home | Current Version | Previous Version | Text Only | Print | Product List | Glossary Off
Versions: 1 2 3 4 5 6 7 8 9 10 11 12 13 14 15 16 17 18 19 20 21 22 23 24 25 26 27 28 29 30 31 32 33 34 35 36 37 38 39 40 41 42 43 44 45 46 47 48 49 50

000
ASUS45 KTFX 270804
RWRMT
MONTANA HOURLY WEATHER ROUNDUP
NATIONAL WEATHER SERVICE GREAT FALLS MT
204 AM MDT WED AUG 27 2014

NOTE: "FAIR" INDICATES FEW OR NO CLOUDS BELOW 12000 FEET WITH NO
SIGNIFICANT WEATHER AND/OR OBSTRUCTIONS TO VISIBILITY.

* THESE STATIONS ARE NOT UNDER NWS QUALITY CONTROL. THEY DO NOT
   REPORT WEATHER SUCH AS PRECIPITATION OR FOG.

MTZ001>007-043-270900-
WEST OF THE DIVIDE
CITY           SKY/WX    TMP DP  RH WIND       PRES   REMARKS
KALISPELL      CLEAR     48  45  89 CALM      30.07S
MISSOULA       CLEAR     57  45  64 SE3       30.13R
BUTTE          CLEAR     46  43  89 SE7       30.23R
MULLAN PASS    CLEAR     57  39  51 W5        30.23S
* LINCOLN      N/A       43  42  96 N/A        N/A
* LOOKOUT PASS N/A       54  44  69 N/A        N/A
* POLSON       N/A       58  44  60 S1         N/A
* RONAN APT    CLEAR     50  45  83 N/A        N/A
* SEELEY LAKE  N/A       43  40  89 N/A        N/A
* THOMP F APT  CLEAR     48  36  63 N5         N/A
$$

MTZ008-052>055-270900-
SOUTHWEST MONTANA
CITY           SKY/WX    TMP DP  RH WIND       PRES   REMARKS
BOZEMAN        CLEAR     52  46  80 S5        30.17R
DILLON         CLEAR     54  45  72 S9        30.19S
W YELLOWSTONE  CLEAR     36  36 100 CALM      30.30S
* THREE FORKS  CLEAR     52  30  43 N/A        N/A
* BOULDER HILL N/A       53  39  59 SW7        N/A
* MONIDA PASS  N/A       47  37  68 W3         N/A
* RAYNOLDS PAS N/A       46  26  46 SE3        N/A
* WHITEHALL    N/A       53  47  80 N4         N/A
* WISE RIVER   N/A       47  42  83 S4         N/A
$$

MTZ009>010-012-014-046-048-049-054-270900-
EAST SLOPES AND CENTRAL MONTANA
CITY           SKY/WX    TMP DP  RH WIND       PRES   REMARKS
CUT BANK       CLEAR     54  45  72 W9        30.05F
GREAT FALLS    CLEAR     55  43  64 S7        30.07S
HELENA         CLEAR     57  45  64 SE3       30.12S
MALMSTROM AFB  CLEAR     57  45  64 SW9       30.08S
* CONRAD       CLEAR     54  48  80 N/A        N/A
* DEARBORN     N/A       53  44  72 S3         N/A
* EAST GLACIER N/A       57  43  60 NW9        N/A
* MONARCH      N/A       48  39  71 S11        N/A
* PENDROY      N/A       62  41  46 NW14       N/A
* ROGERS PASS  N/A       52  39  61 N/A        N/A
* SAINT MARY   N/A       62  42  48 S6G14      N/A
* SWEET GRASS  N/A       61  44  54 SW11       N/A
$$

MTZ011-013-016-021-035-040-045-047-050-051-270900-
NORTH CENTRAL MONTANA
CITY           SKY/WX    TMP DP  RH WIND       PRES   REMARKS
HAVRE          CLEAR     63  45  52 CALM      30.00F
LEWISTOWN      CLEAR     54  45  72 SE8       30.12S
* CHESTER      N/A       55  45  69 N/A        N/A
* DENTON       N/A       51  47  86 S9         N/A
* GEYSER       N/A       50  44  80 S6         N/A
* LOMA         N/A       59  47  65 NE3        N/A
$$

MTZ017>020-022>027-061-062-270900-
NORTHEAST MONTANA
CITY           SKY/WX    TMP DP  RH WIND       PRES   REMARKS
GLASGOW        CLEAR     54  50  86 E12       30.06S
GLENDIVE       CLEAR     55  52  90 S5        30.13S
JORDAN         CLEAR     52  50  93 CALM      30.09S
SIDNEY         CLEAR     52  52 100 S5        30.13F
WOLF POINT     CLEAR     54  48  80 E3        30.09S
* BEAVER HILL  N/A       56  53  90 SE12       N/A
* CIRCLE       N/A       56  50  80 N/A        N/A
* LINDSAY DVD  N/A       54  50  86 E2         N/A
* NAVAJO       N/A       52  46  80 S6         N/A
* SACO         N/A       57  51  80 SE6        N/A
$$

MTZ028>042-056>058-270900-
SOUTHCENTRAL AND SOUTHEAST MONTANA
CITY           SKY/WX    TMP DP  RH WIND       PRES   REMARKS
BAKER          CLEAR     54  52  93 SE7       30.15F
BILLINGS       CLEAR     64  48  56 S7        30.11S
LIVINGSTON     CLEAR     52  45  77 NW6       30.16S
MILES CITY     CLEAR     57  50  78 SE8       30.10F
* LAUREL APT   CLEAR     55  46  72 N/A        N/A
* ROUNDUP APT  CLEAR     55  48  77 N/A        N/A
* ALZADA       N/A       56  54  93 NE7        N/A
* HYSHAM       N/A       66  39  37 SE8G14     N/A
* LAME DEER    N/A       60  44  56 SE5        N/A
* REED POINT   N/A       52  49  90 N/A        N/A
* ROSCOE HILL  N/A       58  36  44 SW8        N/A
$$

REGIONAL REPORTS...DAKOTAS
CITY           SKY/WX    TMP DP  RH WIND       PRES   REMARKS
WILLISTON      CLEAR     55  52  90 S3        30.12F
DICKINSON      CLEAR     50  48  93 S8        30.15S
BEACH          N/A       54  54 100 SE8       30.16R
CROSBY         CLEAR     52  52 100 S10       30.11F
TIOGA          CLEAR     54  54 100 S7        30.17S
WATFORD CITY   CLEAR     50  50 100 SE6       30.12F
BISMARCK       CLEAR     54  52  93 NE3       30.18F
GRAND FORKS    CLEAR     52  50  93 SW3       30.16S
FARGO          FOG       52  52 100 S3        30.19S
BUFFALO SD     CLEAR     52  50  93 NE6       30.10F
RAPID CITY     CLOUDY    59  54  84 E5        30.16S
$$

REGIONAL REPORTS...WYOMING/IDAHO/WASHINGTON
CITY           SKY/WX    TMP DP  RH WIND       PRES   REMARKS
GILLETTE       PTCLDY    55  52  90 S6        30.18F
SHERIDAN       CLEAR     52  48  86 SE3       30.16F
CODY           PTCLDY    55  48  77 S5        30.19S
YELLOWSTONE LA PTCLDY    36  34  92 NW3       30.38F
SALMON         CLEAR     50  46  86 CALM      30.17R
MULLAN PASS    CLEAR     57  39  51 W5        30.23S
SAND POINT     CLEAR     52  52 100 CALM      30.04S
SPOKANE        CLEAR     66  45  47 SE3       30.03S

$$



USA.gov is the U.S. government's official web portal to all federal, state and local government web resources and services.